EZS48YR BKPR-LSGG

Flight info

Callsign EZS48YR
Flight time 1h 56m
Altitude 18000
Route KUKAD1A KUKAD DCT RETRA/N0440F380 DCT TIBRI DCT NERRA DCT SIPAL DCT BAXON DCT SRN/N0360F240 DCT TERSI/N0350F220 DCT AOSTA L615 BANKO
Aircraft A320/M-SDE2E3FGHIJ1RWXYZ/LB1

Departure

Time 2026-04-14 12:39
Airport Priština Adem Jashari International Airport (BKPR)

Arrival

Time 2026-04-14 14:36
Airport Geneva International Airport (LSGG)
Time Latitude Longitude Altitude Speed Heading
2026-04-14 11:42 42.57491 21.03114 1787 ft 0 kts 265°
2026-04-14 12:28 42.57492 21.03139 1787 ft 4 kts 269°
2026-04-14 12:29 42.57491 21.03175 1787 ft 4 kts 281°
2026-04-14 12:29 42.57483 21.03209 1787 ft 4 kts 306°
2026-04-14 12:29 42.57467 21.03226 1786 ft 1 kts 355°
2026-04-14 12:29 42.57466 21.03226 1787 ft 0 kts 355°
2026-04-14 12:32 42.57482 21.03225 1786 ft 4 kts 356°
2026-04-14 12:32 42.57525 21.03221 1786 ft 8 kts 356°
2026-04-14 12:32 42.57582 21.03239 1787 ft 8 kts 40°
2026-04-14 12:32 42.57614 21.03303 1786 ft 9 kts 26°
2026-04-14 12:33 42.57685 21.03303 1787 ft 10 kts 356°
2026-04-14 12:33 42.57758 21.03297 1786 ft 11 kts 356°
2026-04-14 12:33 42.57830 21.03289 1787 ft 10 kts 355°
2026-04-14 12:33 42.57902 21.03281 1787 ft 10 kts 355°
2026-04-14 12:34 42.57970 21.03274 1788 ft 9 kts 355°
2026-04-14 12:34 42.58031 21.03267 1790 ft 9 kts 356°
2026-04-14 12:34 42.58113 21.03259 1792 ft 14 kts 355°
2026-04-14 12:34 42.58213 21.03248 1793 ft 15 kts 355°
2026-04-14 12:35 42.58308 21.03237 1794 ft 13 kts 355°
2026-04-14 12:35 42.58382 21.03241 1796 ft 9 kts 23°
2026-04-14 12:35 42.58417 21.03299 1799 ft 8 kts 59°
2026-04-14 12:35 42.58429 21.03327 1800 ft 0 kts 58°
2026-04-14 12:37 42.58435 21.03338 1798 ft 3 kts 58°
2026-04-14 12:37 42.58451 21.03374 1797 ft 6 kts 58°
2026-04-14 12:37 42.58467 21.03439 1798 ft 7 kts 86°
2026-04-14 12:38 42.58378 21.03478 1798 ft 19 kts 176°
2026-04-14 12:38 42.57989 21.03518 1788 ft 92 kts 175°
2026-04-14 12:38 42.57153 21.03604 1789 ft 146 kts 175°
2026-04-14 12:39 42.56082 21.03711 2353 ft 151 kts 175°
2026-04-14 12:39 42.55028 21.03807 3038 ft 158 kts 173°
2026-04-14 12:39 42.53856 21.03926 3432 ft 180 kts 173°
2026-04-14 12:39 42.52531 21.04063 3727 ft 203 kts 173°
2026-04-14 12:40 42.51036 21.04153 4142 ft 228 kts 185°
2026-04-14 12:40 42.49581 21.03185 4863 ft 245 kts 225°
2026-04-14 12:40 42.48753 21.01153 5737 ft 251 kts 251°
2026-04-14 12:40 42.48312 20.98861 6750 ft 250 kts 255°
2026-04-14 12:41 42.47893 20.96581 7670 ft 251 kts 255°
2026-04-14 12:41 42.47479 20.94288 8588 ft 251 kts 255°
2026-04-14 12:41 42.47060 20.91978 9527 ft 254 kts 255°
2026-04-14 12:41 42.46637 20.89645 10385 ft 257 kts 255°
2026-04-14 12:42 42.46213 20.87280 11179 ft 259 kts 255°
2026-04-14 12:42 42.45786 20.84892 11968 ft 262 kts 256°
2026-04-14 12:42 42.45352 20.82478 12758 ft 265 kts 256°
2026-04-14 12:42 42.44921 20.80003 13298 ft 280 kts 257°
2026-04-14 12:43 42.44493 20.77319 13521 ft 303 kts 257°
2026-04-14 12:43 42.44052 20.74427 13814 ft 322 kts 258°
2026-04-14 12:43 42.43602 20.71419 14374 ft 329 kts 258°
2026-04-14 12:43 42.43152 20.68404 14994 ft 333 kts 258°
2026-04-14 12:44 42.42678 20.65277 15665 ft 336 kts 258°
2026-04-14 12:44 42.42202 20.62205 16314 ft 340 kts 258°
2026-04-14 12:44 42.41711 20.59061 16958 ft 343 kts 258°
2026-04-14 12:45 42.40710 20.52677 18257 ft 351 kts 258°
2026-04-14 12:45 42.40201 20.49440 18816 ft 354 kts 258°
2026-04-14 12:45 42.39686 20.46171 19385 ft 357 kts 257°
2026-04-14 12:45 42.39166 20.42877 19968 ft 359 kts 257°
2026-04-14 12:46 42.38642 20.39562 20557 ft 361 kts 257°
2026-04-14 12:46 42.38115 20.36229 21133 ft 363 kts 257°
2026-04-14 12:46 42.37583 20.32880 21702 ft 365 kts 257°
2026-04-14 12:46 42.37047 20.29516 22273 ft 367 kts 257°
2026-04-14 12:47 42.36505 20.26138 22835 ft 368 kts 257°
2026-04-14 12:47 42.35960 20.22743 23378 ft 371 kts 257°
2026-04-14 12:47 42.35411 20.19323 23883 ft 373 kts 257°
2026-04-14 12:47 42.34871 20.15884 24317 ft 375 kts 258°
2026-04-14 12:48 42.34363 20.12421 24778 ft 377 kts 258°
2026-04-14 12:48 42.33874 20.08935 25220 ft 378 kts 258°
2026-04-14 12:48 42.33391 20.05431 25640 ft 380 kts 258°
2026-04-14 12:48 42.32901 20.01912 26052 ft 382 kts 258°
2026-04-14 12:49 42.32400 19.98380 26466 ft 384 kts 258°
2026-04-14 12:49 42.31890 19.94833 26905 ft 386 kts 258°
2026-04-14 12:49 42.31374 19.91279 27342 ft 387 kts 258°
2026-04-14 12:49 42.30853 19.87701 27748 ft 389 kts 257°
2026-04-14 12:50 42.30329 19.84111 28140 ft 390 kts 257°
2026-04-14 12:50 42.29268 19.76878 28922 ft 395 kts 257°
2026-04-14 12:50 42.28730 19.73234 29287 ft 396 kts 257°
2026-04-14 12:51 42.28191 19.69577 29696 ft 398 kts 257°
2026-04-14 12:51 42.27653 19.65906 30080 ft 399 kts 257°
2026-04-14 12:51 42.27114 19.62221 30338 ft 401 kts 257°
2026-04-14 12:51 42.26578 19.58570 30644 ft 403 kts 257°
2026-04-14 12:52 42.26026 19.54810 30962 ft 404 kts 257°
2026-04-14 12:52 42.25474 19.51082 31261 ft 406 kts 257°
2026-04-14 12:52 42.24916 19.47346 31598 ft 406 kts 257°
2026-04-14 12:52 42.24364 19.43671 32012 ft 405 kts 257°
2026-04-14 12:53 42.23802 19.39950 32360 ft 404 kts 257°
2026-04-14 12:53 42.23392 19.36197 32728 ft 405 kts 265°
2026-04-14 12:53 42.23451 19.32407 33089 ft 406 kts 274°
2026-04-14 12:53 42.23991 19.28663 33491 ft 408 kts 283°
2026-04-14 12:54 42.24858 19.25014 33885 ft 408 kts 284°
2026-04-14 12:54 42.25731 19.21363 34011 ft 407 kts 284°
2026-04-14 12:54 42.26591 19.17732 34028 ft 406 kts 284°
2026-04-14 12:55 42.28294 19.10463 34032 ft 406 kts 284°
2026-04-14 12:55 42.29993 19.03189 34027 ft 406 kts 284°
2026-04-14 12:56 42.31693 18.95900 34022 ft 407 kts 284°
2026-04-14 12:56 42.33391 18.88606 34020 ft 406 kts 284°
2026-04-14 12:57 42.35086 18.81321 34016 ft 406 kts 284°
2026-04-14 12:57 42.36781 18.74023 34052 ft 409 kts 284°
2026-04-14 12:57 42.37632 18.70350 34299 ft 410 kts 284°
2026-04-14 12:58 42.38481 18.66673 34586 ft 410 kts 284°
2026-04-14 12:58 42.39326 18.62992 34860 ft 410 kts 284°
2026-04-14 12:58 42.40170 18.59306 35117 ft 410 kts 284°
2026-04-14 12:58 42.41167 18.55678 35366 ft 414 kts 292°
2026-04-14 12:59 42.42605 18.52282 35602 ft 418 kts 300°
2026-04-14 12:59 42.44238 18.49018 35876 ft 419 kts 300°
2026-04-14 12:59 42.45869 18.45749 36122 ft 419 kts 300°
2026-04-14 12:59 42.47499 18.42469 36359 ft 420 kts 300°
2026-04-14 13:00 42.49131 18.39173 36569 ft 421 kts 300°
2026-04-14 13:00 42.50761 18.35877 36797 ft 421 kts 300°
2026-04-14 13:00 42.52391 18.32576 37008 ft 422 kts 300°
2026-04-14 13:00 42.54001 18.29315 37228 ft 422 kts 300°
2026-04-14 13:01 42.55655 18.25963 37452 ft 422 kts 300°
2026-04-14 13:01 42.57264 18.22694 37647 ft 422 kts 300°
2026-04-14 13:01 42.58894 18.19376 37848 ft 423 kts 300°
2026-04-14 13:01 42.60525 18.16055 37996 ft 423 kts 300°
2026-04-14 13:02 42.62158 18.12736 38028 ft 422 kts 300°
2026-04-14 13:02 42.65415 18.06105 38027 ft 422 kts 300°
2026-04-14 13:03 42.68658 17.99474 38019 ft 421 kts 300°
2026-04-14 13:03 42.71894 17.92827 38012 ft 421 kts 300°
2026-04-14 13:04 42.75124 17.86168 38016 ft 422 kts 300°
2026-04-14 13:04 42.78363 17.79506 38014 ft 422 kts 300°
2026-04-14 13:05 42.81605 17.72835 38027 ft 422 kts 300°
2026-04-14 13:05 42.84833 17.66154 38030 ft 422 kts 300°
2026-04-14 13:06 42.88052 17.59473 38030 ft 422 kts 300°
2026-04-14 13:06 42.91274 17.52790 38027 ft 422 kts 300°
2026-04-14 13:07 42.94552 17.46156 38019 ft 421 kts 301°
2026-04-14 13:07 42.97856 17.39547 38022 ft 421 kts 301°
2026-04-14 13:08 43.01146 17.32920 38015 ft 422 kts 301°
2026-04-14 13:08 43.04396 17.26309 38012 ft 422 kts 301°
2026-04-14 13:09 43.07682 17.19602 38014 ft 422 kts 301°
2026-04-14 13:09 43.10929 17.12972 38007 ft 422 kts 301°
2026-04-14 13:10 43.14111 17.06228 38010 ft 420 kts 294°
2026-04-14 13:10 43.16792 16.99131 38010 ft 420 kts 294°
2026-04-14 13:11 43.19458 16.92026 38011 ft 420 kts 294°
2026-04-14 13:11 43.22130 16.84899 38000 ft 420 kts 294°
2026-04-14 13:12 43.24802 16.77776 38002 ft 420 kts 294°
2026-04-14 13:12 43.27459 16.70655 38002 ft 420 kts 294°
2026-04-14 13:13 43.30121 16.63520 38000 ft 420 kts 294°
2026-04-14 13:13 43.32778 16.56376 37997 ft 420 kts 294°
2026-04-14 13:14 43.35437 16.49223 37997 ft 420 kts 294°
2026-04-14 13:14 43.38084 16.42052 37995 ft 421 kts 294°
2026-04-14 13:15 43.40709 16.34920 37993 ft 421 kts 294°
2026-04-14 13:15 43.43352 16.27734 38006 ft 421 kts 294°
2026-04-14 13:16 43.46001 16.20541 38004 ft 421 kts 294°
2026-04-14 13:16 43.48639 16.13349 38005 ft 421 kts 294°
2026-04-14 13:17 43.51270 16.06138 38003 ft 420 kts 293°
2026-04-14 13:17 43.53890 15.98930 38011 ft 420 kts 293°
2026-04-14 13:18 43.56506 15.91723 37975 ft 420 kts 294°
2026-04-14 13:18 43.59119 15.84499 37974 ft 421 kts 294°
2026-04-14 13:19 43.61717 15.77317 37961 ft 421 kts 294°
2026-04-14 13:19 43.64327 15.70080 37960 ft 421 kts 293°
2026-04-14 13:20 43.66935 15.62828 37962 ft 421 kts 293°
2026-04-14 13:20 43.69535 15.55568 37959 ft 422 kts 293°
2026-04-14 13:21 43.72135 15.48291 37948 ft 422 kts 293°
2026-04-14 13:21 43.74731 15.41011 37951 ft 423 kts 293°
2026-04-14 13:22 43.77331 15.33721 37952 ft 422 kts 293°
2026-04-14 13:22 43.79923 15.26424 37964 ft 423 kts 293°
2026-04-14 13:23 43.82507 15.19110 37960 ft 423 kts 293°
2026-04-14 13:23 43.84645 15.13025 37959 ft 423 kts 293°
2026-04-14 13:24 43.87228 15.05688 37959 ft 423 kts 293°
2026-04-14 13:24 43.91089 14.94690 37956 ft 423 kts 293°
2026-04-14 13:25 43.93662 14.87343 37964 ft 423 kts 293°
2026-04-14 13:26 43.98784 14.72620 37968 ft 423 kts 293°
2026-04-14 13:26 44.01344 14.65253 37959 ft 423 kts 293°
2026-04-14 13:27 44.03901 14.57874 37955 ft 423 kts 292°
2026-04-14 13:27 44.06450 14.50490 37953 ft 424 kts 292°
2026-04-14 13:28 44.08989 14.43108 37961 ft 423 kts 292°
2026-04-14 13:28 44.11525 14.35711 37963 ft 423 kts 292°
2026-04-14 13:29 44.14057 14.28311 37957 ft 423 kts 292°
2026-04-14 13:29 44.16585 14.20907 37969 ft 423 kts 292°
2026-04-14 13:30 44.19091 14.13542 37964 ft 423 kts 292°
2026-04-14 13:30 44.21608 14.06121 37967 ft 423 kts 292°
2026-04-14 13:31 44.24141 13.98646 37961 ft 424 kts 292°
2026-04-14 13:31 44.26639 13.91255 37960 ft 424 kts 292°
2026-04-14 13:32 44.29155 13.83760 37963 ft 424 kts 292°
2026-04-14 13:32 44.31642 13.76342 37959 ft 425 kts 292°
2026-04-14 13:33 44.34148 13.68860 37965 ft 425 kts 292°
2026-04-14 13:33 44.36650 13.61367 37968 ft 425 kts 292°
2026-04-14 13:34 44.40382 13.50117 37971 ft 425 kts 292°
2026-04-14 13:35 44.42833 13.42575 37967 ft 425 kts 291°
2026-04-14 13:35 44.45128 13.34955 37960 ft 425 kts 290°
2026-04-14 13:36 44.47375 13.27309 37971 ft 425 kts 290°
2026-04-14 13:36 44.49651 13.19682 37964 ft 425 kts 290°
2026-04-14 13:37 44.51942 13.12049 37964 ft 425 kts 290°
2026-04-14 13:37 44.54219 13.04409 37964 ft 425 kts 290°
2026-04-14 13:38 44.56494 12.96744 37961 ft 425 kts 290°
2026-04-14 13:38 44.58761 12.89089 37967 ft 425 kts 290°
2026-04-14 13:39 44.61015 12.81463 37962 ft 426 kts 290°
2026-04-14 13:39 44.63283 12.73774 37961 ft 426 kts 290°
2026-04-14 13:40 44.65544 12.66063 37964 ft 427 kts 290°
2026-04-14 13:40 44.67798 12.58359 37968 ft 427 kts 290°
2026-04-14 13:41 44.70053 12.50626 37970 ft 427 kts 290°
2026-04-14 13:41 44.72309 12.42880 37967 ft 428 kts 290°
2026-04-14 13:42 44.74561 12.35112 37969 ft 429 kts 290°
2026-04-14 13:42 44.76806 12.27326 37971 ft 430 kts 290°
2026-04-14 13:43 44.79050 12.19530 37982 ft 430 kts 290°
2026-04-14 13:43 44.81296 12.11717 37980 ft 431 kts 290°
2026-04-14 13:44 44.83523 12.03941 37989 ft 431 kts 290°
2026-04-14 13:44 44.85761 11.96104 37993 ft 431 kts 290°
2026-04-14 13:45 44.87994 11.88260 37999 ft 431 kts 290°
2026-04-14 13:45 44.90223 11.80414 38010 ft 432 kts 290°
2026-04-14 13:46 44.92451 11.72547 38007 ft 432 kts 290°
2026-04-14 13:46 44.94672 11.64666 38018 ft 432 kts 290°
2026-04-14 13:47 44.96884 11.56762 38019 ft 432 kts 290°
2026-04-14 13:47 44.99090 11.48867 38027 ft 432 kts 290°
2026-04-14 13:48 45.01296 11.40956 38025 ft 433 kts 290°
2026-04-14 13:48 45.03503 11.33038 38027 ft 433 kts 290°
2026-04-14 13:49 45.05697 11.25120 38029 ft 433 kts 289°
2026-04-14 13:49 45.07884 11.17192 37981 ft 432 kts 290°
2026-04-14 13:50 45.10067 11.09261 37974 ft 433 kts 290°
2026-04-14 13:50 45.12244 11.01320 37974 ft 433 kts 290°
2026-04-14 13:51 45.14422 10.93383 37976 ft 433 kts 290°
2026-04-14 13:51 45.16597 10.85429 37991 ft 433 kts 289°
2026-04-14 13:52 45.18763 10.77464 37998 ft 433 kts 290°
2026-04-14 13:52 45.20916 10.69500 38026 ft 432 kts 290°
2026-04-14 13:53 45.23070 10.61531 38023 ft 433 kts 290°
2026-04-14 13:53 45.25204 10.53604 38026 ft 433 kts 290°
2026-04-14 13:54 45.27346 10.45609 38034 ft 433 kts 290°
2026-04-14 13:54 45.29483 10.37614 38034 ft 433 kts 290°
2026-04-14 13:55 45.31612 10.29632 38006 ft 432 kts 290°
2026-04-14 13:55 45.33737 10.21603 38007 ft 432 kts 289°
2026-04-14 13:56 45.35838 10.13660 38014 ft 431 kts 289°
2026-04-14 13:56 45.37949 10.05676 38010 ft 431 kts 290°
2026-04-14 13:57 45.40051 9.97687 38006 ft 431 kts 290°
2026-04-14 13:57 45.42150 9.89685 38007 ft 431 kts 290°
2026-04-14 13:58 45.44237 9.81682 38021 ft 431 kts 290°
2026-04-14 13:58 45.46317 9.73673 37992 ft 431 kts 290°
2026-04-14 13:59 45.48391 9.65671 37984 ft 430 kts 290°
2026-04-14 13:59 45.50460 9.57668 37986 ft 431 kts 290°
2026-04-14 14:00 45.52532 9.49638 37988 ft 432 kts 290°
2026-04-14 14:00 45.54584 9.41609 37984 ft 430 kts 290°
2026-04-14 14:01 45.56630 9.33598 38026 ft 430 kts 291°
2026-04-14 14:01 45.58672 9.25574 38015 ft 430 kts 291°
2026-04-14 14:02 45.60717 9.17522 38008 ft 431 kts 290°
2026-04-14 14:02 45.62751 9.09479 38002 ft 431 kts 290°
2026-04-14 14:03 45.64616 9.01387 37985 ft 432 kts 282°
2026-04-14 14:03 45.65484 8.92894 37995 ft 433 kts 279°
2026-04-14 14:04 45.66312 8.84374 38001 ft 433 kts 279°
2026-04-14 14:04 45.67134 8.75855 38003 ft 432 kts 279°
2026-04-14 14:05 45.67949 8.67339 38001 ft 432 kts 278°
2026-04-14 14:05 45.68743 8.58818 37997 ft 432 kts 279°
2026-04-14 14:06 45.69530 8.50312 38001 ft 432 kts 279°
2026-04-14 14:06 45.70316 8.41798 38003 ft 432 kts 279°
2026-04-14 14:07 45.71100 8.33288 38000 ft 431 kts 279°
2026-04-14 14:07 45.71876 8.24777 37995 ft 431 kts 279°
2026-04-14 14:08 45.72637 8.16264 38013 ft 431 kts 279°
2026-04-14 14:08 45.73395 8.07736 37868 ft 437 kts 279°
2026-04-14 14:08 45.73778 8.03391 37479 ft 440 kts 278°
2026-04-14 14:09 45.74157 7.99059 36983 ft 436 kts 278°
2026-04-14 14:09 45.74405 7.96219 36652 ft 434 kts 278°
2026-04-14 14:09 45.74780 7.91947 36154 ft 431 kts 278°
2026-04-14 14:09 45.75152 7.87705 35652 ft 428 kts 278°
2026-04-14 14:10 45.75520 7.83485 35149 ft 425 kts 279°
2026-04-14 14:10 45.75884 7.79315 34635 ft 422 kts 278°
2026-04-14 14:10 45.76243 7.75146 34127 ft 420 kts 278°
2026-04-14 14:10 45.76594 7.71004 33560 ft 417 kts 278°
2026-04-14 14:11 45.76942 7.66896 33067 ft 413 kts 278°
2026-04-14 14:11 45.77286 7.62831 32568 ft 409 kts 278°
2026-04-14 14:11 45.77625 7.58802 32086 ft 405 kts 278°
2026-04-14 14:11 45.77960 7.54818 31610 ft 402 kts 278°
2026-04-14 14:12 45.78292 7.50857 31134 ft 399 kts 277°
2026-04-14 14:12 45.78621 7.46929 30628 ft 396 kts 277°
2026-04-14 14:12 45.78948 7.43030 30166 ft 393 kts 277°
2026-04-14 14:12 45.79269 7.39159 29677 ft 389 kts 277°
2026-04-14 14:13 45.79586 7.35330 29233 ft 384 kts 277°
2026-04-14 14:13 45.79898 7.31551 28810 ft 379 kts 277°
2026-04-14 14:13 45.80202 7.27821 28389 ft 374 kts 277°
2026-04-14 14:13 45.80503 7.24139 27970 ft 370 kts 277°
2026-04-14 14:14 45.80798 7.20499 27567 ft 366 kts 277°
2026-04-14 14:14 45.81086 7.16896 27150 ft 362 kts 277°
2026-04-14 14:14 45.81369 7.13369 26735 ft 359 kts 277°
2026-04-14 14:14 45.81656 7.09826 26321 ft 356 kts 278°
2026-04-14 14:15 45.82202 7.06383 25894 ft 353 kts 289°
2026-04-14 14:15 45.83177 7.03175 25484 ft 350 kts 300°
2026-04-14 14:15 45.84499 7.00259 25035 ft 348 kts 304°
2026-04-14 14:15 45.85873 6.97405 24591 ft 347 kts 304°
2026-04-14 14:16 45.87236 6.94557 24165 ft 346 kts 304°
2026-04-14 14:16 45.88595 6.91708 23729 ft 345 kts 303°
2026-04-14 14:16 45.89944 6.88871 23233 ft 344 kts 304°
2026-04-14 14:17 45.92621 6.83223 22333 ft 340 kts 304°
2026-04-14 14:17 45.93944 6.80422 21925 ft 337 kts 304°
2026-04-14 14:17 45.95258 6.77645 21509 ft 335 kts 304°
2026-04-14 14:17 45.96563 6.74880 21081 ft 333 kts 304°
2026-04-14 14:18 45.97850 6.72123 20665 ft 332 kts 303°
2026-04-14 14:18 45.99127 6.69364 20246 ft 331 kts 303°
2026-04-14 14:18 46.00398 6.66609 19831 ft 330 kts 304°
2026-04-14 14:18 46.01668 6.63852 19434 ft 329 kts 304°
2026-04-14 14:19 46.02929 6.61112 19024 ft 329 kts 304°
2026-04-14 14:19 46.04195 6.58369 18614 ft 329 kts 304°
2026-04-14 14:19 46.05462 6.55626 18179 ft 329 kts 305°
2026-04-14 14:19 46.06742 6.52897 17774 ft 327 kts 305°
2026-04-14 14:20 46.08018 6.50201 17390 ft 326 kts 305°
2026-04-14 14:20 46.09292 6.47517 16999 ft 324 kts 305°
2026-04-14 14:20 46.10558 6.44849 16610 ft 321 kts 306°
2026-04-14 14:20 46.11814 6.42196 16229 ft 320 kts 305°
2026-04-14 14:21 46.13045 6.39584 15858 ft 319 kts 306°
2026-04-14 14:21 46.14294 6.36941 15485 ft 319 kts 305°
2026-04-14 14:21 46.15543 6.34302 15098 ft 319 kts 305°
2026-04-14 14:21 46.16792 6.31658 14682 ft 319 kts 305°
2026-04-14 14:22 46.17839 6.28842 14270 ft 320 kts 288°
2026-04-14 14:22 46.18095 6.25657 13823 ft 323 kts 265°
2026-04-14 14:22 46.17468 6.22591 13591 ft 317 kts 242°
2026-04-14 14:22 46.16163 6.20107 13419 ft 309 kts 226°
2026-04-14 14:23 46.14676 6.17878 13090 ft 307 kts 226°
2026-04-14 14:23 46.13192 6.15680 12730 ft 306 kts 226°
2026-04-14 14:23 46.11703 6.13485 12364 ft 306 kts 226°
2026-04-14 14:23 46.10219 6.11298 12013 ft 305 kts 226°
2026-04-14 14:24 46.08740 6.09119 11668 ft 303 kts 225°
2026-04-14 14:24 46.07258 6.06963 11283 ft 303 kts 225°
2026-04-14 14:24 46.05771 6.04818 10908 ft 303 kts 225°
2026-04-14 14:24 46.04280 6.02672 10549 ft 302 kts 225°
2026-04-14 14:25 46.02799 6.00540 10216 ft 301 kts 225°
2026-04-14 14:25 46.01328 5.98418 9868 ft 298 kts 225°
2026-04-14 14:25 45.99866 5.96301 9466 ft 298 kts 225°
2026-04-14 14:25 45.98412 5.94189 9093 ft 297 kts 225°
2026-04-14 14:26 45.96962 5.92089 8722 ft 294 kts 225°
2026-04-14 14:26 45.95541 5.90060 8601 ft 282 kts 225°
2026-04-14 14:26 45.94170 5.88105 8468 ft 272 kts 226°
2026-04-14 14:26 45.93122 5.85949 8327 ft 257 kts 252°
2026-04-14 14:27 45.92938 5.83506 8200 ft 240 kts 285°
2026-04-14 14:27 45.93617 5.81428 8077 ft 228 kts 315°
2026-04-14 14:27 45.94724 5.79825 7953 ft 226 kts 321°
2026-04-14 14:27 45.95903 5.78332 7825 ft 225 kts 322°
2026-04-14 14:28 45.97125 5.76933 7696 ft 222 kts 335°
2026-04-14 14:28 45.98548 5.76335 7573 ft 215 kts
2026-04-14 14:28 45.99980 5.76688 7456 ft 206 kts 25°
2026-04-14 14:28 46.01120 5.77840 7349 ft 198 kts 45°
2026-04-14 14:29 46.02072 5.79228 7205 ft 193 kts 44°
2026-04-14 14:29 46.03016 5.80588 6981 ft 191 kts 45°
2026-04-14 14:29 46.03949 5.81938 6744 ft 189 kts 45°
2026-04-14 14:29 46.04875 5.83281 6501 ft 188 kts 45°
2026-04-14 14:30 46.05794 5.84615 6234 ft 187 kts 45°
2026-04-14 14:30 46.06708 5.85942 5980 ft 186 kts 45°
2026-04-14 14:30 46.07616 5.87262 5732 ft 186 kts 44°
2026-04-14 14:30 46.08527 5.88586 5489 ft 186 kts 44°
2026-04-14 14:31 46.09444 5.89919 5235 ft 188 kts 44°
2026-04-14 14:31 46.10359 5.91251 4991 ft 187 kts 44°
2026-04-14 14:31 46.11280 5.92592 4726 ft 189 kts 43°
2026-04-14 14:31 46.12202 5.93932 4489 ft 187 kts 43°
2026-04-14 14:32 46.13094 5.95232 4241 ft 178 kts 43°
2026-04-14 14:32 46.13962 5.96498 3981 ft 177 kts 43°
2026-04-14 14:32 46.14823 5.97747 3773 ft 175 kts 43°
2026-04-14 14:32 46.15657 5.98969 3525 ft 168 kts 44°
2026-04-14 14:33 46.16450 6.00131 3286 ft 156 kts 44°
2026-04-14 14:33 46.17190 6.01208 3071 ft 146 kts 44°
2026-04-14 14:33 46.17874 6.02208 2898 ft 137 kts 44°
2026-04-14 14:33 46.18523 6.03154 2745 ft 129 kts 45°
2026-04-14 14:34 46.19779 6.04991 2294 ft 131 kts 45°
2026-04-14 14:34 46.20405 6.05905 2126 ft 126 kts 46°
2026-04-14 14:34 46.21027 6.06809 1949 ft 126 kts 49°
2026-04-14 14:35 46.21649 6.07719 1791 ft 129 kts 48°
2026-04-14 14:35 46.22280 6.08646 1616 ft 127 kts 48°
2026-04-14 14:35 46.22886 6.09546 1431 ft 126 kts 47°
2026-04-14 14:35 46.23416 6.10325 1397 ft 86 kts 45°
2026-04-14 14:36 46.23726 6.10778 1381 ft 46 kts 45°
2026-04-14 14:36 46.23852 6.10964 1377 ft 11 kts 48°
2026-04-14 14:36 46.23854 6.11050 1377 ft 11 kts 129°
2026-04-14 14:36 46.23784 6.11081 1378 ft 9 kts 171°
2026-04-14 14:37 46.23734 6.11091 1385 ft 9 kts 178°
2026-04-14 14:37 46.23685 6.11053 1385 ft 8 kts 226°
2026-04-14 14:37 46.23617 6.10950 1387 ft 21 kts 226°
2026-04-14 14:37 46.23507 6.10790 1386 ft 24 kts 225°
2026-04-14 14:38 46.23392 6.10627 1398 ft 17 kts 221°
2026-04-14 14:38 46.23323 6.10530 1392 ft 10 kts 225°
2026-04-14 14:38 46.23264 6.10548 1396 ft 12 kts 136°
2026-04-14 14:38 46.23203 6.10635 1393 ft 11 kts 135°
2026-04-14 14:39 46.23143 6.10626 1401 ft 11 kts 223°
2026-04-14 14:39 46.23089 6.10545 1393 ft 10 kts 225°
2026-04-14 14:39 46.23084 6.10468 1402 ft 10 kts 307°
2026-04-14 14:39 46.23105 6.10390 1395 ft 5 kts 272°
2026-04-14 14:40 46.23106 6.10338 1393 ft 4 kts 270°
2026-04-14 14:40 46.23106 6.10327 1393 ft 0 kts 270°